Weather History for Boulder City, NV

Change the Weather History Date:

Friday, July 4, 2014

  Actual Average (KLAS) Record (KLAS)
Temperature  
Mean Temperature 92 °F 92 °F  
Max Temperature 102 °F 104 °F 115 °F (1973)
Min Temperature 82 °F 80 °F 60 °F (1941)
Degree Days  
Heating Degree Days 0 0  
Month to date heating degree days 0  
Since 1 June heating degree days 1  
Since 1 July heating degree days 0  
Cooling Degree Days 27 27  
Month to date cooling degree days 105  
Year to date cooling degree days 1305  
Since 1 June cooling degree days 755  
Growing Degree Days 42 (Base 50)    
Moisture  
Dew Point 54 °F    
Average Humidity 29    
Maximum Humidity 48    
Minimum Humidity 16    
Precipitation  
Precipitation 0.00 in 0.00 in 0.16 in (1949)
Month to date precipitation 0.02  
Year to date precipitation 2.10  
Snow  
Snow 0.00 in 0.00 in 0.00 in ()
Month to date snowfall 0.0  
Since 1 June snowfall 0.0  
Since 1 July snowfall 0.0  
Snow Depth -    
Sea Level Pressure  
Sea Level Pressure 30.00 in    
Wind  
Wind Speed 15 mph (SSE)    
Max Wind Speed 30 mph    
Max Gust Speed 41 mph    
Visibility 10 miles    
Events Thunderstorm    
T = Trace of Precipitation, MM = Missing Value Source: NWS Daily Summary

Daily Weather History Graph

Daily Weather History Graph

Search for Another Location

Airport:

Trip Planner

Search our weather history database for the weather conditions in past years. The results will help you decide how hot, cold, wet, or windy it might be!

Date:

Astronomy

Jul. 04, 2014 Rise Set
Actual Time 5:27 AM PDT 7:59 PM PDT
Civil Twilight 4:57 AM PDT 8:29 PM PDT
Nautical Twilight 4:20 AM PDT 9:06 PM PDT
Astronomical Twilight 3:39 AM PDT 9:47 PM PDT
Moon 12:14 PM PDT (7/4) No Moon Set
Length of Visible Light 15h 31m
Length of Day
14h 31m
Waxing Crescent, 43% of the Moon is Illuminated
Jul 4
Waxing Crescent
Jul 5
First Quarter
Jul 12
Full
Jul 18
Last Quarter
Jul 26
New

Hourly Weather History & Observations

Time (PDT) Temp. Heat Index Dew Point Humidity Pressure Visibility Wind Dir Wind Speed Gust Speed Precip Events Conditions
12:15 AM 95.0 °F - 46.4 °F 19% 29.91 in 10.0 mi SSW 11.5 mph 24.2 mph N/A   Clear
12:35 AM 95.0 °F - 48.2 °F 20% 29.92 in 10.0 mi South 9.2 mph 18.4 mph N/A   Clear
12:55 AM 93.2 °F - 50.0 °F 23% 29.92 in 10.0 mi South 10.4 mph - N/A   Clear
1:15 AM 93.2 °F - 50.0 °F 23% 29.93 in 10.0 mi South 13.8 mph - N/A   Clear
1:35 AM 93.2 °F - 51.8 °F 24% 29.93 in 10.0 mi South 16.1 mph - N/A   Clear
1:55 AM 91.4 °F 89.1 °F 53.6 °F 28% 29.95 in 10.0 mi SSE 18.4 mph - N/A   Clear
2:15 AM 89.6 °F 88.9 °F 59.0 °F 36% 29.97 in 7.0 mi SSE 29.9 mph 41.4 mph N/A   Clear
2:35 AM 87.8 °F 87.1 °F 59.0 °F 38% 29.99 in 9.0 mi South 19.6 mph 33.4 mph N/A   Clear
2:55 AM 86.0 °F 86.1 °F 60.8 °F 43% 30.01 in 10.0 mi South 13.8 mph 21.9 mph N/A   Clear
3:15 AM 84.2 °F 84.4 °F 60.8 °F 45% 30.02 in 9.0 mi SSE 10.4 mph 16.1 mph N/A   Clear
3:35 AM 84.2 °F 84.4 °F 60.8 °F 45% 30.02 in 10.0 mi SSW 10.4 mph - N/A   Clear
3:55 AM 84.2 °F 84.4 °F 60.8 °F 45% 30.02 in 9.0 mi SSW 21.9 mph 29.9 mph N/A   Clear
4:15 AM 84.2 °F 84.4 °F 60.8 °F 45% 30.02 in 9.0 mi South 21.9 mph 29.9 mph N/A   Clear
4:35 AM 84.2 °F 84.4 °F 60.8 °F 45% 30.02 in 10.0 mi South 13.8 mph 26.5 mph N/A   Clear
4:55 AM 82.4 °F 82.9 °F 60.8 °F 48% 30.03 in 9.0 mi SSE 11.5 mph 18.4 mph N/A   Clear
5:15 AM 82.4 °F 82.9 °F 60.8 °F 48% 30.03 in 10.0 mi South 9.2 mph - N/A   Clear
5:35 AM 82.4 °F 82.5 °F 59.0 °F 45% 30.04 in 10.0 mi South 12.7 mph - N/A   Clear
5:55 AM 82.4 °F 82.5 °F 59.0 °F 45% 30.04 in 10.0 mi South 11.5 mph - N/A   Clear
6:15 AM 82.4 °F 82.5 °F 59.0 °F 45% 30.04 in 10.0 mi South 11.5 mph - N/A   Clear
6:35 AM 84.2 °F 83.8 °F 59.0 °F 42% 30.06 in 10.0 mi SSE 15.0 mph - N/A   Clear
6:55 AM 84.2 °F 83.8 °F 59.0 °F 42% 30.06 in 10.0 mi SE 12.7 mph - N/A   Clear
7:15 AM 84.2 °F 83.8 °F 59.0 °F 42% 30.06 in 10.0 mi SE 12.7 mph - N/A   Clear
7:35 AM 84.2 °F 83.5 °F 57.2 °F 40% 30.07 in 9.0 mi SE 10.4 mph - N/A   Clear
7:55 AM 86.0 °F 84.9 °F 57.2 °F 37% 30.07 in 10.0 mi South 15.0 mph - N/A   Clear
8:15 AM 87.8 °F 86.5 °F 57.2 °F 35% 30.06 in 10.0 mi SSE 16.1 mph 23.0 mph N/A   Clear
8:35 AM 87.8 °F 86.5 °F 57.2 °F 35% 30.06 in 10.0 mi SSE 16.1 mph - N/A   Clear
8:55 AM 89.6 °F 88.1 °F 57.2 °F 33% 30.06 in 10.0 mi SE 16.1 mph - N/A   Clear
9:15 AM 89.6 °F 88.1 °F 57.2 °F 33% 30.06 in 10.0 mi SE 15.0 mph - N/A   Clear
9:35 AM 89.6 °F 88.1 °F 57.2 °F 33% 30.06 in 10.0 mi ESE 19.6 mph - N/A   Clear
9:55 AM 91.4 °F 89.9 °F 57.2 °F 31% 30.06 in 10.0 mi SE 17.3 mph 24.2 mph N/A   Clear
10:15 AM 93.2 °F 91.9 °F 57.2 °F 30% 30.06 in 10.0 mi SE 17.3 mph - N/A   Clear
10:35 AM 93.2 °F 91.3 °F 55.4 °F 28% 30.05 in 10.0 mi SE 13.8 mph 20.7 mph N/A   Clear
10:55 AM 95.0 °F 93.0 °F 55.4 °F 26% 30.05 in 10.0 mi SE 13.8 mph - N/A   Clear
11:15 AM 93.2 °F 91.3 °F 55.4 °F 28% 30.05 in 10.0 mi ESE 13.8 mph 23.0 mph N/A   Clear
11:35 AM 95.0 °F 93.0 °F 55.4 °F 26% 30.04 in 10.0 mi SE 16.1 mph - N/A   Partly Cloudy
11:55 AM 96.8 °F 94.4 °F 53.6 °F 23% 30.03 in 10.0 mi SE 13.8 mph 20.7 mph N/A   Clear
12:15 PM 96.8 °F 94.4 °F 53.6 °F 23% 30.02 in 10.0 mi ESE 13.8 mph - N/A   Clear
12:35 PM 98.6 °F 96.4 °F 53.6 °F 22% 30.01 in 10.0 mi ESE 10.4 mph 17.3 mph N/A   Clear
12:55 PM 100.4 °F - 51.8 °F 20% 30.00 in 10.0 mi SSE 13.8 mph - N/A   Scattered Clouds
1:15 PM 98.6 °F 96.4 °F 53.6 °F 22% 29.99 in 10.0 mi East 12.7 mph 19.6 mph N/A   Scattered Clouds
1:35 PM 100.4 °F - 50.0 °F 18% 29.98 in - SSE 17.3 mph - N/A   Partly Cloudy
1:55 PM 102.2 °F - 50.0 °F 17% 29.98 in 10.0 mi SSE 21.9 mph - N/A   Clear
2:15 PM 102.2 °F - 50.0 °F 17% 29.97 in 10.0 mi SSE 21.9 mph - N/A   Clear
2:35 PM 100.4 °F - 51.8 °F 20% 29.97 in 10.0 mi SSE 23.0 mph 29.9 mph N/A   Clear
2:55 PM 100.4 °F - 51.8 °F 20% 29.96 in 10.0 mi SSE 24.2 mph - N/A   Clear
3:15 PM 100.4 °F - 51.8 °F 20% 29.95 in 10.0 mi SSE 23.0 mph 29.9 mph N/A   Clear
3:35 PM 102.2 °F - 50.0 °F 17% 29.94 in 10.0 mi SSE 23.0 mph - N/A   Clear
3:55 PM 102.2 °F - 50.0 °F 17% 29.93 in 10.0 mi SSE 20.7 mph 28.8 mph N/A   Clear
4:15 PM 100.4 °F - 48.2 °F 17% 29.93 in 10.0 mi SE 19.6 mph 27.6 mph N/A   Clear
4:35 PM 100.4 °F - 46.4 °F 16% 29.92 in 10.0 mi SSE 23.0 mph - N/A   Clear
4:55 PM 100.4 °F - 46.4 °F 16% 29.92 in 10.0 mi SSE 23.0 mph - N/A   Clear
5:15 PM 100.4 °F - 48.2 °F 17% 29.91 in 10.0 mi SSE 19.6 mph 26.5 mph N/A   Clear
5:35 PM 100.4 °F - 46.4 °F 16% 29.92 in 10.0 mi SSE 17.3 mph 24.2 mph N/A   Clear
5:55 PM 100.4 °F - 48.2 °F 17% 29.92 in 10.0 mi SSE 19.6 mph - N/A   Clear
6:15 PM 96.8 °F - 48.2 °F 19% 29.92 in 10.0 mi SSE 17.3 mph 26.5 mph N/A   Clear
6:35 PM 96.8 °F - 48.2 °F 19% 29.93 in 10.0 mi SE 17.3 mph - N/A   Clear
6:55 PM 96.8 °F - 48.2 °F 19% 29.93 in 10.0 mi SSE 15.0 mph 23.0 mph N/A   Clear
7:15 PM 96.8 °F - 48.2 °F 19% 29.94 in 10.0 mi South 13.8 mph 20.7 mph N/A   Clear
7:35 PM 96.8 °F - 48.2 °F 19% 29.94 in 10.0 mi South 11.5 mph 18.4 mph N/A   Clear
7:55 PM 95.0 °F - 50.0 °F 22% 29.94 in 10.0 mi South 13.8 mph - N/A   Clear
8:15 PM 95.0 °F - 50.0 °F 22% 29.95 in 10.0 mi South 11.5 mph - N/A   Mostly Cloudy
8:35 PM 91.4 °F 91.4 °F 60.8 °F 36% 29.96 in 9.0 mi SE 20.7 mph - N/A Thunderstorm Scattered Clouds
8:55 PM 89.6 °F 88.1 °F 57.2 °F 33% 29.97 in 10.0 mi South 10.4 mph 17.3 mph N/A Thunderstorm Scattered Clouds
9:15 PM 91.4 °F - 51.8 °F 26% 29.98 in 10.0 mi South 10.4 mph 18.4 mph N/A Thunderstorm Partly Cloudy
9:35 PM 89.6 °F 88.1 °F 57.2 °F 33% 29.99 in 10.0 mi SSW 12.7 mph - N/A Thunderstorm Clear
9:55 PM 87.8 °F 86.5 °F 57.2 °F 35% 30.00 in 10.0 mi SSW 9.2 mph 15.0 mph N/A Thunderstorm Mostly Cloudy
10:15 PM 87.8 °F 86.5 °F 57.2 °F 35% 30.01 in 10.0 mi Calm Calm - N/A   Mostly Cloudy
10:35 PM 87.8 °F 86.5 °F 57.2 °F 35% 30.02 in 10.0 mi Calm Calm - N/A   Mostly Cloudy
10:55 PM 87.8 °F 87.1 °F 59.0 °F 38% 30.04 in 10.0 mi NW 6.9 mph - N/A   Scattered Clouds
11:15 PM 87.8 °F 86.1 °F 55.4 °F 33% 30.05 in 10.0 mi NW 13.8 mph - N/A   Mostly Cloudy
11:35 PM 87.8 °F 86.1 °F 55.4 °F 33% 30.05 in 10.0 mi NNW 10.4 mph - N/A   Scattered Clouds
11:55 PM 86.0 °F 84.2 °F 53.6 °F 33% 30.04 in 10.0 mi NNW 8.1 mph - N/A   Clear